Simultaneous Nadir Overpasses (SNOs) Predictions

Prediction of SNOs between AURA and NPP Satellite Orbit:

Table of predicted SNOs for the next 14.0 days since TLE Epoch: 2/4/2023
Index Date (AURA) Time (AURA) Lat,Lon (AURA) SZA (AURA ) Date (NPP) Time (NPP) Lat,Lon (NPP) SZA (NPP ) Distance(km) Time Diff (sec)
1 02/05/2023 11:27:05 -79.33, 84.44 71.18 02/05/2023 11:26:20 -79.34, 84.56 71.16 2.57 45
2 02/05/2023 12:16:27 79.49,-106.85 108.59 02/05/2023 12:17:00 79.48,-106.97 108.59 2.48 33
3 02/08/2023 03:43:40 -79.33,-159.68 71.99 02/08/2023 03:43:16 -79.33,-159.71 71.96 0.63 24
4 02/08/2023 04:32:59 79.60, 9.80 107.62 02/08/2023 04:33:52 79.60, 9.84 107.57 0.94 53
5 02/10/2023 20:00:11 -79.45, -43.00 73.00 02/10/2023 20:00:08 -79.45, -42.95 73.01 1.03 3
6 02/10/2023 20:49:02 80.63, 134.95 105.07 02/10/2023 20:50:16 80.49, 135.25 104.97 17.31 74
7 02/13/2023 11:27:23 79.18, -96.56 106.53 02/13/2023 11:26:25 79.17, -96.64 106.59 1.83 58
8 02/13/2023 12:16:42 -79.50, 73.19 73.94 02/13/2023 12:17:01 -79.50, 73.24 73.97 1.14 19
9 02/16/2023 03:43:50 79.38, 20.65 105.33 02/16/2023 03:43:14 79.39, 20.80 105.33 3.16 36



Historial Predications of SNOs between AURA and NPP
